CW5404 Weather Reports


Display with metric or nautical units.
time (UTC)temp
F
wind
direction
speed
MPH
gust
MPH
rain 1hr
in
rain 24hr
in
rain mn
in
humidity
%
barometer
mb
20260503213916 86 0.0 3.0 0.00 0.00 0.00 36 1008.6
20260503211417 84 0.0 5.0 0.00 0.00 0.00 38 1008.8
20260503210417 85 0.0 3.0 0.00 0.00 0.00 41 1009.0
20260503205917 84 0.0 5.0 0.00 0.00 0.00 45 1009.0
20260503205417 83 0.0 5.0 0.00 0.00 0.00 44 1009.1
20260503204416 83 1.0 5.0 0.00 0.00 0.00 43 1009.1
20260503203916 83 3.0 4.0 0.00 0.00 0.00 46 1009.4
20260503203416 82 0.0 5.0 0.00 0.00 0.00 45 1009.4
20260503202916 81 2.0 5.0 0.00 0.00 0.00 46 1009.3
20260503202417 81 2.0 5.0 0.00 0.00 0.00 46 1009.5
20260503201916 81 0.0 5.0 0.00 0.00 0.00 46 1009.5
20260503201417 81 0.0 5.0 0.00 0.00 0.00 48 1009.6
20260503200417 81 0.0 4.0 0.00 0.00 0.00 49 1009.7
20260503195916 81 3.0 4.0 0.00 0.00 0.00 47 1009.7
20260503195416 80 0.0 4.0 0.00 0.00 0.00 52 1010.0
20260503194416 79 3.0 6.0 0.00 0.00 0.00 49 1009.9
20260503193916 79 0.0 6.0 0.00 0.00 0.00 49 1010.0
20260503193416 79 0.0 4.0 0.00 0.00 0.00 52 1010.1
20260503192916 78 0.0 5.0 0.00 0.00 0.00 51 1010.0
20260503192416 78 0.0 5.0 0.00 0.00 0.00 53 1010.1
20260503191916 78 2.0 5.0 0.00 0.00 0.00 52 1010.0
20260503191416 77 0.0 5.0 0.00 0.00 0.00 52 1010.0
20260503190916 78 4.0 5.0 0.00 0.00 0.00 52 1010.3
20260503190415 77 0.0 4.0 0.00 0.00 0.00 51 1010.3
20260503185915 77 0.0 5.0 0.00 0.00 0.00 52 1010.3
20260503185415 77 0.0 5.0 0.00 0.00 0.00 51 1010.5
20260503184915 77 0.0 5.0 0.00 0.00 0.00 54 1010.5
20260503184415 77 3.0 5.0 0.00 0.00 0.00 50 1010.5
20260503183915 77 0.0 3.0 0.00 0.00 0.00 50 1010.5
20260503183415 77 0.0 1.0 0.00 0.00 0.00 48 1010.5
20260503182915 77 0.0 3.0 0.00 0.00 0.00 54 1010.5
20260503182415 76 0.0 3.0 0.00 0.00 0.00 55 1010.7
20260503181915 75 2.0 4.0 0.00 0.00 0.00 51 1010.7
20260503181415 75 0.0 5.0 0.00 0.00 0.00 51 1010.7
20260503180915 75 1.0 5.0 0.00 0.00 0.00 51 1010.8
20260503180415 75 3.0 4.0 0.00 0.00 0.00 52 1010.8
20260503175915 75 1.0 5.0 0.00 0.00 0.00 52 1010.8
20260503175415 75 0.0 5.0 0.00 0.00 0.00 52 1010.8
20260503174914 75 0.0 3.0 0.00 0.00 0.00 53 1010.8
20260503174414 74 0.0 4.0 0.00 0.00 0.00 56 1010.8
20260503173914 74 3.0 4.0 0.00 0.00 0.00 54 1010.9
20260503173414 74 1.0 3.0 0.00 0.00 0.00 56 1010.9
20260503172914 74 0.0 4.0 0.00 0.00 0.00 55 1010.9
20260503172414 74 1.0 4.0 0.00 0.00 0.00 55 1011.0
20260503171914 73 0.0 1.0 0.00 0.00 0.00 58 1011.0
20260503171414 73 0.0 0.0 0.00 0.00 0.00 56 1011.0
20260503170914 73 0.0 0.0 0.00 0.00 0.00 62 1010.9
20260503170414 73 0.0 0.0 0.00 0.00 0.00 62 1010.9
20260503150913 61 0.0 0.0 0.00 0.00 0.00 86 1011.3
20260503150413 61 0.0 0.0 0.00 0.00 0.00 88 1011.3
20260503131412 50 0.0 0.0 0.00 0.00 0.00 96 1010.9
20260503130912 50 0.0 0.0 0.00 0.00 0.00 96 1010.9
20260503130411 50 0.0 0.0 0.00 0.00 0.00 96 1010.9
20260503090409 54 0.0 0.0 0.00 0.00 0.00 90 1011.5
20260503081408 56 0.0 0.0 0.00 0.00 0.00 89 1011.5
20260503080908 56 0.0 0.0 0.00 0.00 0.00 89 1011.5
20260503080408 56 0.0 0.0 0.00 0.00 0.00 88 1011.5
20260503072908 57 0.0 0.0 0.00 0.00 0.00 87 1011.9
20260503072408 57 0.0 0.0 0.00 0.00 0.00 87 1011.9
20260503071907 57 0.0 0.0 0.00 0.00 0.00 86 1011.9
20260503071408 57 0.0 0.0 0.00 0.00 0.00 86 1011.9
20260503070407 58 0.0 0.0 0.00 0.00 0.00 85 1011.9
20260503054906 60 0.0 0.0 0.00 0.00 0.00 80 1011.7
20260503054407 61 0.0 0.0 0.00 0.00 0.00 80 1011.8
20260503053907 61 0.0 0.0 0.00 0.00 0.00 79 1011.9
20260503053406 61 0.0 0.0 0.00 0.00 0.00 79 1011.9
20260503052906 61 0.0 0.0 0.00 0.00 0.00 79 1011.9
20260503052407 61 0.0 0.0 0.00 0.00 0.00 79 1011.7
20260503051906 61 0.0 0.0 0.00 0.00 0.00 79 1011.7
20260503051406 62 0.0 0.0 0.00 0.00 0.00 78 1011.7
20260503050936 62 0.0 0.0 0.00 0.00 0.00 78 1011.7
20260503050406 62 0.0 0.0 0.00 0.00 0.00 78 1011.7
20260503045936 62 0.0 0.0 0.00 0.00 0.00 77 1011.7
20260503045406 62 0.0 0.0 0.00 0.00 0.00 77 1011.7
20260503044906 62 0.0 0.0 0.00 0.00 0.00 76 1011.7
20260503044406 62 0.0 0.0 0.00 0.00 0.00 76 1011.7
20260503043905 62 0.0 0.0 0.00 0.00 0.00 76 1011.6
20260503043405 62 0.0 0.0 0.00 0.00 0.00 75 1011.6
20260503042405 63 0.0 0.0 0.00 0.00 0.00 75 1011.5
20260503041936 63 0.0 0.0 0.00 0.00 0.00 74 1011.5
20260503041435 63 0.0 0.0 0.00 0.00 0.00 74 1011.5
20260503040906 63 0.0 0.0 0.00 0.00 0.00 73 1011.4
20260503040436 63 0.0 0.0 0.00 0.00 0.00 73 1011.4
20260503035905 63 0.0 0.0 0.00 0.00 0.00 72 1011.4
20260503035435 64 0.0 3.0 0.00 0.00 0.00 72 1011.2
20260503034905 64 0.0 3.0 0.00 0.00 0.00 72 1011.2
20260503034405 64 1.0 3.0 0.00 0.00 0.00 71 1011.2
20260503033905 64 2.0 3.0 0.00 0.00 0.00 70 1010.9
20260503033405 64 1.0 3.0 0.00 0.00 0.00 70 1010.9
20260503032935 64 0.0 0.0 0.00 0.00 0.00 70 1010.9
20260503032405 64 0.0 0.0 0.00 0.00 0.00 71 1010.4
20260503031935 64 0.0 0.0 0.00 0.00 0.00 70 1010.4
20260503031405 64 0.0 0.0 0.00 0.00 0.00 70 1010.4
20260503030935 64 0.0 0.0 0.00 0.00 0.00 70 1010.4
20260503030405 64 0.0 2.0 0.00 0.00 0.00 69 1010.4
20260503025935 64 0.0 2.0 0.00 0.00 0.00 69 1010.4
20260503025404 64 0.0 2.0 0.00 0.00 0.00 69 1010.6
20260503024905 65 0.0 2.0 0.00 0.00 0.00 69 1010.6
20260503024404 65 0.0 2.0 0.00 0.00 0.00 68 1010.6
20260503023904 65 1.0 1.0 0.00 0.00 0.00 69 1010.9
20260503023404 65 0.0 0.0 0.00 0.00 0.00 70 1010.9
20260503022904 65 0.0 0.0 0.00 0.00 0.00 70 1010.9
20260503022404 65 0.0 0.0 0.00 0.00 0.00 69 1011.4
20260503021904 65 0.0 0.0 0.00 0.00 0.00 69 1011.4
20260503021434 66 0.0 3.0 0.00 0.00 0.00 68 1011.4
20260503020904 66 0.0 4.0 0.00 0.00 0.00 69 1011.9
20260503020404 66 2.0 5.0 0.00 0.00 0.00 68 1011.9
20260503015434 66 2.0 6.0 0.00 0.00 0.00 67 1011.7
20260503014903 67 5.0 6.0 0.00 0.00 0.00 68 1011.7
20260503014403 67 3.0 7.0 0.00 0.00 0.00 67 1011.7
20260503013404 67 4.0 5.0 0.00 0.00 0.00 66 1011.3
20260503012904 68 2.0 5.0 0.00 0.00 0.00 65 1011.4
20260503012403 68 4.0 7.0 0.00 0.00 0.00 65 1011.2
20260503010904 68 4.0 5.0 0.00 0.00 0.00 64 1011.1
20260503010433 68 3.0 5.0 0.00 0.00 0.00 64 1011.1
20260503005933 68 2.0 3.0 0.00 0.00 0.00 65 1011.1
20260503005403 68 0.0 3.0 0.00 0.00 0.00 63 1011.1
20260503004903 68 2.0 4.0 0.00 0.00 0.00 62 1011.1
20260503004403 68 3.0 7.0 0.00 0.00 0.00 61 1011.1
20260503003903 68 1.0 7.0 0.00 0.00 0.00 60 1011.0
20260503003403 69 2.0 5.0 0.00 0.00 0.00 61 1011.0
20260503002903 69 2.0 5.0 0.00 0.00 0.00 59 1011.0
20260503002403 69 0.0 5.0 0.00 0.00 0.00 60 1010.9
20260503001933 69 1.0 5.0 0.00 0.00 0.00 59 1010.9
20260503001433 69 5.0 5.0 0.00 0.00 0.00 61 1010.9
20260503000402 69 0.0 6.0 0.00 0.00 0.00 63 1010.9
20260502235432 68 1.0 7.0 0.00 0.00 0.00 62 1011.0
20260502234902 68 1.0 7.0 0.00 0.00 0.00 62 1011.0
20260502234432 68 4.0 6.0 0.00 0.00 0.00 65 1011.0
20260502233902 68 3.0 6.0 0.00 0.00 0.00 63 1011.3
20260502233402 68 3.0 5.0 0.00 0.00 0.00 63 1011.3
20260502232902 68 2.0 5.0 0.00 0.00 0.00 64 1011.3
20260502232432 68 2.0 4.0 0.00 0.00 0.00 64 1011.5
20260502231402 67 4.0 5.0 0.00 0.00 0.00 63 1011.5
20260502230902 67 3.0 6.0 0.00 0.00 0.00 64 1011.9
20260502230432 67 2.0 7.0 0.00 0.00 0.00 63 1011.9
20260502225932 68 3.0 7.0 0.00 0.00 0.00 63 1011.9
20260502224931 68 1.0 4.0 0.00 0.00 0.00 65 1012.0
20260502224430 68 1.0 4.0 0.00 0.00 0.00 63 1012.0
20260502223901 68 2.0 8.0 0.00 0.00 0.00 63 1012.4
20260502223430 68 0.0 8.0 0.00 0.00 0.00 66 1012.4
20260502222930 68 3.0 6.0 0.00 0.00 0.00 63 1012.4
20260502222431 68 1.0 4.0 0.00 0.00 0.00 60 1012.6
20260502221930 68 4.0 4.0 0.00 0.00 0.00 66 1012.6
20260502221430 67 2.0 5.0 0.00 0.00 0.00 65 1012.6
20260502220930 67 1.0 5.0 0.00 0.00 0.00 62 1012.6
20260502215930 66 0.0 4.0 0.00 0.00 0.00 65 1012.6
20260502215430 65 0.0 5.0 0.00 0.00 0.00 66 1012.9
20260502214929 65 2.0 5.0 0.00 0.00 0.00 65 1012.9
20260502214430 65 2.0 5.0 0.00 0.00 0.00 67 1012.9